Terminal Aerodrome Forecast
Issued by NWS Tampa Bay Area, FL

Home | Current Version | Previous Version | Text Only | Print | Product List | Glossary On
Versions: 1 2 3 4 5 6 7 8 9 10 11 12 13 14 15 16 17 18 19 20 21 22 23 24 25 26 27 28 29
000
FTUS42 KTBW 042300
TAFTPA
TAF
KTPA 042334Z 0500/0524 21005KT P6SM SCT250
     FM050900 15003KT 6SM BR FEW001 SCT007
     FM051500 17006KT P6SM SCT025 BKN035
     FM052000 21009KT P6SM SCT030 BKN050=

USA.gov is the U.S. government's official web portal to all federal, state and local government web resources and services.